Location: Saluda
(35.2377°N, 82.3468°W)
Time: 15:27:55
(UTC+00:00)

Vanguard 2 Rocket - All Passes

Search period start: 03 October 2022 00:00
Search period end: 13 October 2022 00:00
Orbit: 553 x 3323 km, 32.9° (Epoch: 02 October)

Date Brightness Start Highest point End Pass type
(mag) Time Alt. Az. Time Alt. Az. Time Alt. Az.
03 Oct - 01:32:20 10° SSW 01:47:47 33° SSE 01:58:43 10° E visible
03 Oct - 03:47:58 10° SW 04:03:48 59° SSE 04:12:53 10° E visible
03 Oct - 06:06:33 10° W 06:18:40 77° S 06:25:16 10° E night (unlit)
03 Oct - 08:24:24 10° W 08:32:07 52° SSW 08:36:51 10° SE visible
03 Oct - 10:42:44 10° SW 10:43:53 11° SW 10:44:57 10° SSW visible
04 Oct - 00:31:41 10° SSW 00:46:00 26° SE 00:57:14 10° E visible
04 Oct - 02:45:23 10° SW 03:02:25 52° SSE 03:12:55 10° E visible
04 Oct - 05:03:34 10° WSW 05:17:58 75° S 05:25:48 10° E visible
04 Oct - 07:22:16 10° W 07:32:09 68° SSW 07:37:45 10° ESE night (unlit)
04 Oct - 09:39:44 10° W 09:44:29 22° SW 09:48:03 10° SSE visible
04 Oct - 23:32:22 10° S 23:44:08 19° SE 23:54:22 10° ESE visible
05 Oct - 01:43:16 10° SW 02:00:43 44° SSE 02:12:34 10° E visible
05 Oct - 04:00:27 10° WSW 04:16:53 70° SSE 04:26:10 10° E visible
05 Oct - 06:19:38 10° W 06:31:50 77° S 06:38:28 10° ESE night (unlit)
05 Oct - 08:37:40 10° W 08:44:59 38° SSW 08:49:38 10° SE visible
05 Oct - 22:36:09 10° SSE 22:42:16 12° SE 22:48:08 10° ESE daylight
06 Oct - 00:41:51 10° SSW 00:58:49 36° SSE 01:11:37 10° E visible
06 Oct - 02:57:29 10° WSW 03:15:26 64° SSE 03:26:16 10° E visible
06 Oct - 05:16:34 10° W 05:31:07 79° S 05:39:02 10° E visible
06 Oct - 07:35:24 10° W 07:45:09 56° SSW 07:50:46 10° SE night (unlit)
06 Oct - 09:54:14 10° WSW 09:57:00 13° SW 09:59:20 10° SSW visible
06 Oct - 23:41:23 10° SSW 23:56:51 28° SE 00:09:49 10° E visible
07 Oct - 01:54:55 10° SW 02:13:38 56° SSE 02:26:02 10° E visible
07 Oct - 04:13:15 10° WSW 04:30:00 78° S 04:39:23 10° E visible
07 Oct - 06:32:43 10° W 06:44:56 70° SSW 06:51:36 10° ESE night (unlit)
07 Oct - 08:51:12 10° W 08:57:37 26° SW 09:01:59 10° SSE visible
07 Oct - 22:42:13 10° S 22:54:54 21° SE 23:06:37 10° E daylight
08 Oct - 00:52:58 10° SW 01:11:35 47° SSE 01:25:21 10° E visible
08 Oct - 03:10:00 10° WSW 03:28:28 73° SSE 03:39:31 10° E visible
08 Oct - 05:29:38 10° W 05:44:16 78° S 05:52:13 10° ESE visible
08 Oct - 07:48:37 10° W 07:57:58 42° SSW 08:03:31 10° SE night (unlit)
08 Oct - 21:45:52 10° SSE 21:53:07 13° SE 22:00:18 10° ESE daylight
08 Oct - 23:51:48 10° SSW 00:09:26 39° SSE 00:24:03 10° E visible
09 Oct - 02:07:05 10° WSW 02:26:33 67° SSE 02:39:19 10° E visible
09 Oct - 04:26:14 10° W 04:43:08 81° S 04:52:36 10° E visible
09 Oct - 06:45:50 10° W 06:57:53 59° SSW 07:04:36 10° SE night (unlit)
09 Oct - 09:05:22 10° W 09:09:59 16° SW 09:13:33 10° S visible
09 Oct - 22:51:37 10° SSW 23:07:21 30° SE 23:21:49 10° E daylight
10 Oct - 01:04:43 10° SW 01:24:21 59° SSE 01:38:45 10° E visible
10 Oct - 03:22:49 10° WSW 03:41:33 80° S 03:52:43 10° E visible
10 Oct - 05:42:42 10° W 05:57:20 72° SSW 06:05:20 10° ESE visible
10 Oct - 08:02:03 10° W 08:10:30 30° SW 08:15:54 10° SSE night (unlit)
10 Oct - 21:52:45 10° S 22:05:29 21° SE 22:18:10 10° E daylight
11 Oct - 00:03:04 10° SW 00:22:01 50° SSE 00:37:41 10° E visible
11 Oct - 02:19:39 10° WSW 02:39:32 75° SSE 02:52:32 10° E visible
11 Oct - 04:39:18 10° W 04:56:15 79° S 05:05:47 10° ESE visible
11 Oct - 06:59:00 10° W 07:10:38 46° SSW 07:17:20 10° SE night (unlit)
11 Oct - 20:56:40 10° SSE 21:03:54 13° SE 21:11:21 10° ESE daylight
11 Oct - 23:02:16 10° SSW 23:19:45 40° SE 23:35:55 10° E visible
12 Oct - 01:16:58 10° WSW 01:37:11 69° SSE 01:51:59 10° E visible
12 Oct - 03:35:48 10° W 03:54:39 82° S 04:05:55 10° E visible
12 Oct - 05:55:47 10° W 06:10:15 62° SSW 06:18:19 10° SE visible
12 Oct - 08:16:00 10° W 08:22:48 20° SW 08:27:36 10° S night (unlit)
12 Oct - 22:02:26 10° SSW 22:17:42 31° SE 22:33:13 10° E daylight
